Location: 22
(39.7117°N, 89.5929°W)
Time: 21:00:20
(UTC-05:00)

Vanguard 3 - Pass Details

Date: 08 February 2023
Orbit: 508 x 3249 km, 33.4° (Epoch: 24 March)

Event Time Altitude Azimuth Distance (km) Brightness Sun altitude
Rises 19:43:55 0° 264° (W) 4,054 12.0 -26.9°
Reaches altitude 10° 19:46:13 10° 261° (W) 3,361 11.2 -27.3°
Maximum altitude 19:55:02 63° 183° (S) 2,124 9.1 -29.0°
Enters shadow 20:00:03 42° 124° (SE) 2,964 9.5 -30.0°
Drops below altitude 10° 20:10:33 10° 108° (ESE) 5,645 - -32.0°
Sets 20:15:42 0° 106° (ESE) 6,934 - -32.9°
